Location: Bouchavesnes-Bergen
(49.9859°N, 2.9203°E)
Time: 00:03:46
(UTC+00:00)

SKYMED 3 - Pass Details

Date: 09 March 2021
Orbit: 621 x 623 km, 97.9° (Epoch: 13 April)

Event Time Altitude Azimuth Distance (km) Brightness Sun altitude
Rises 05:01:58 0° 171° (S) 2,891 8.0 -12.5°
Reaches altitude 10° 05:04:10 10° 174° (S) 1,989 7.2 -12.2°
Maximum altitude 05:08:28 69° 257° (WSW) 670 4.5 -11.5°
Drops below altitude 10° 05:12:50 10° 342° (NNW) 2,006 7.1 -10.8°
Sets 05:15:03 0° 345° (NNW) 2,917 7.9 -10.4°
